Flag for Brazil Weather past 2 weeks in Porto Alegre, Rio Grande do Sul, Brazil

Now
68 °F

Light rain. Overcast.


Feels Like: 68 °F
Forecast: 58 / 67 °F
Wind: 5 mph from East

Location: Porto Alegre Aero-Porto

Current Time: Sep 30, 2014 at 9:01:52 PM

Latest Report: Sep 30, 2014 at 8:00 PM


Visibility: 4 mi

Pressure: 29.92 "Hg

Humidity: 94%

Dew point: 66 °F

Location of Porto AlegreLocation

Historic Weather in Porto Alegre — Graph

°F

Porto Alegre temperature yesterday

Maximum temperature yesterday: 75 °F (at 2:00 PM)
Minimum temperature yesterday: 66 °F (at 9:00 PM)
Average temperature yesterday: 70 °F

Past Weeks' High & Low Weather Summary

 TemperatureHumidityPressure
High84 °F (Sep 23, 3:00 PM)100% (Sep 17, 8:00 AM)30.21 "Hg (Sep 17, 8:00 AM)
Low37 °F (Sep 17, 8:00 AM)28% (Sep 30, 7:00 PM)29.71 "Hg (Sep 25, 6:00 PM)
Average66 °F79%29.98 "Hg
* Reported Sep 15 8:00 PM — Sep 30 8:00 PM, Porto Alegre, Weather by CustomWeather, © 2014

Note: Actual official high and low records may vary slightly from our data, if they occured in-between our weather recording intervals... More about our weather records

Advertising

Porto Alegre weather history for previous 24 hours

 ConditionsComfort  
Time TempWeatherWind HumidityBarometerVisibility
8:00 PM
Sep 30
68 °FLight rain. Overcast.5 mph94%29.92 "Hg4 mi
7:00 PM68 °FLight rain. Overcast.3 mph28%N/A5 mi
6:00 PM70 °FLight rain. Overcast.3 mph88%29.86 "Hg5 mi
5:00 PM70 °FMore clouds than sun.9 mph88%29.83 "Hg5 mi
4:00 PM70 °FCloudy.5 mph88%29.83 "Hg4 mi
3:00 PM70 °FMostly cloudy.10 mph88%29.86 "Hg4 mi
2:00 PM68 °FFog.10 mph94%29.86 "Hg3 mi
1:00 PM68 °FLight rain. Fog.5 mph94%29.92 "Hg3 mi
12:00 PM66 °FFog.9 mph94%29.92 "Hg3 mi
11:00 AM66 °FLight rain. Fog.7 mph94%29.95 "Hg3 mi
10:00 AM66 °FLow clouds.3 mph94%29.98 "Hg4 mi
9:00 AM64 °FLow clouds.8 mph94%29.95 "Hg4 mi
8:00 AM64 °FLow clouds.6 mph94%29.95 "Hg4 mi
7:00 AM64 °FLow clouds.6 mph94%29.92 "Hg4 mi
6:00 AM64 °FLow clouds.8 mph94%29.92 "Hg4 mi
5:00 AM64 °FLow clouds.6 mph94%29.92 "HgN/A
4:00 AM64 °FLow clouds.7 mph94%29.92 "HgN/A
3:00 AM64 °FLow clouds.8 mph94%29.92 "HgN/A
2:00 AM64 °FLow clouds.9 mph94%29.95 "HgN/A
1:00 AM64 °FLow clouds.8 mph94%29.92 "HgN/A
12:00 AM66 °FLow clouds.9 mph88%29.92 "HgN/A
11:00 PM
Sep 29
66 °FPassing clouds.5 mph88%29.95 "HgN/A
10:00 PM66 °FPassing clouds.8 mph88%29.92 "HgN/A
9:00 PM66 °FPassing clouds.9 mph88%29.92 "HgN/A
Weather by CustomWeather, © 2014

See weather overviewHow to use our weather pages